Location: Calvera
(42.3882°N, 0.6137°E)
Time: 20:01:38
(UTC+00:00)

Cosmos 614 Rocket - Pass Details

Date: 28 October 2020
Orbit: 734 x 763 km, 74.1° (Epoch: 22 November)

Event Time Altitude Azimuth Distance (km) Brightness Sun altitude
Rises 05:35:51 0° 211° (SSW) 3,190 7.0 -9.9°
Reaches altitude 10° 05:38:16 10° 215° (SW) 2,265 6.2 -9.5°
Maximum altitude 05:43:17 55° 293° (WNW) 898 4.0 -8.6°
Drops below altitude 10° 05:48:19 10° 11° (NNE) 2,261 6.5 -7.6°
Sets 05:50:43 0° 16° (NNE) 3,185 7.3 -7.2°
